#timestamp,LO_Frequency,Hit,StdDev 
1523271615.4,286046998.1,N
1523271635.2,286047000.9,N
1523271655.0,286046998.1,N
1523271655.9,286046998.1,N
1523271675.8,286046998.2,N
1523271695.6,286046998.5,N
1523271715.5,286047001.2,N
1523271735.3,286047000.5,N
1523271755.1,286047001.2,N
1523271775.9,286047000.6,N
1523271795.7,286047000.3,N
1523271815.5,286047000.4,N
1523271835.4,286046998.1,N
1523271855.2,286047000.0,N
1523271875.1,286046998.5,N
1523271876.0,286046998.5,N
1523271895.8,286047001.0,N
1523271915.6,286047000.9,N
1523271935.5,286047000.6,N
1523271955.3,286047000.2,N
1523271975.2,286047002.7,N
1523271995.9,286047000.1,N
1523272015.7,286047002.5,N
1523272035.6,286047000.2,N
1523272055.4,286047002.6,N
1523272075.2,286047002.8,N
1523272095.1,286047001.3,N
1523272096.0,286047001.3,N
1523272115.8,286047001.5,N
1523272135.7,286047002.5,N
1523272155.5,286047000.3,N
1523272175.3,286047000.3,N
1523272195.2,286047002.7,N
1523272215.0,286047000.7,N
1523272215.9,286047000.7,N
1523272235.8,286047001.0,N
1523272255.6,286047000.8,N
1523272275.4,286046998.9,N
1523272295.3,286046998.9,N
1523272315.1,286046998.6,N
1523272335.8,286047001.1,N
1523272355.7,286046998.5,N
1523272375.5,286046996.6,N
1523272395.4,286046993.3,Y
1523272415.2,286046994.0,P
1523272435.0,286046995.9,N
1523272435.9,286046995.9,N
1523272455.8,286046995.7,N
1523272475.6,286046996.1,N
1523272495.4,286046994.4,N
1523272515.3,286046994.4,N
1523272535.1,286046992.2,Y
1523272555.9,286046998.2,P
1523272575.7,286047002.5,N
1523272595.5,286047001.4,N
1523272615.4,286047000.3,N
1523272635.2,286047002.5,N
1523272685.1,286046995.4,E
1523272695.9,286046998.5,N
1523272715.7,286046999.8,P
1523272735.6,286047000.6,N
1523272755.4,286047001.1,N
1523272775.3,286047011.9,Y
1523272795.1,286046998.5,P
1523272796.0,286046998.5,N
1523272815.8,286046999.5,N
1523272835.7,286046998.2,N
1523272855.5,286046997.1,Y
1523272875.4,286046997.3,P
1523272895.2,286046995.3,P
1523272915.0,286046997.2,N
1523272915.9,286046997.2,N
1523272935.8,286046997.1,N
1523272955.6,286046996.0,Y
1523272975.4,286046997.5,P
1523272995.3,286046997.9,P
1523273015.1,286046996.7,P
1523273035.9,286046998.3,Y
1523273055.7,286047002.5,P
1523273075.5,286047002.4,N
1523273095.4,286047002.5,N
1523273115.2,286047004.1,N
1523273135.1,286047005.5,N
1523273136.0,286047005.5,N
1523273155.8,286047003.6,N
1523273175.6,286047006.0,N
1523273195.5,286047004.3,N
1523273215.3,286047000.2,N
1523273235.1,286046999.0,N
1523273255.9,286046997.4,N
1523273275.7,286046996.5,N
1523273295.6,286046997.5,N
1523273315.4,286046995.8,N
1523273335.2,286046994.7,N
1523273355.1,286046995.9,N
1523273356.0,286046995.9,N
1523273375.8,286046996.4,N
1523273395.6,286046996.2,N
1523273415.5,286046993.3,N
1523273435.3,286046993.4,N
1523273455.2,286046995.9,N
1523273475.9,286046995.1,N
1523273495.7,286046996.9,N
1523273515.6,286046997.2,N
1523273535.4,286046997.9,N
1523273555.2,286046994.9,N
1523273575.1,286046996.6,N
1523273576.0,286046996.6,N
1523273595.8,286046998.7,N
1523273615.7,286047001.0,N
1523273635.5,286047001.6,N
1523273655.3,286047000.9,N
1523273675.2,286047000.8,N
1523273695.0,286046997.1,N
1523273695.9,286046997.1,N
1523273715.8,286046999.6,N
1523273735.6,286046999.0,N
1523273755.4,286046997.0,N
1523273775.3,286046996.1,N
1523273795.1,286046994.1,N
1523273815.8,286046991.7,Y
1523273835.7,286046993.8,P
1523273855.5,286046995.8,N
1523273875.4,286046993.3,P
1523273895.2,286046994.9,Y
1523273915.0,286047000.0,P
1523273915.9,286047000.0,N
1523273935.8,286047001.4,N
1523273955.6,286047004.0,N
1523273975.4,286047001.8,N
1523273995.3,286047000.5,N
1523274015.1,286046998.3,N
1523274035.9,286047002.0,N
1523274055.7,286047000.0,N
1523274075.5,286047000.6,N
1523274095.4,286047000.1,N
1523274115.2,286047002.5,N
1523274135.0,286047002.2,N
1523274136.0,286047002.2,N
1523274155.8,286047001.3,N
1523274175.6,286047001.6,N
1523274195.5,286047000.3,N
1523274215.3,286047000.3,N
1523274235.1,286046999.7,N
1523274255.9,286047003.6,N
1523274275.7,286047001.5,N
1523274295.6,286046999.8,N
1523274315.4,286047004.4,N
1523274335.2,286047002.0,N
1523274355.1,286047000.9,N
1523274356.0,286047000.9,N
1523274375.8,286047002.1,N
1523274395.6,286047002.8,N
1523274415.5,286047004.3,N
1523274435.3,286047001.3,N
1523274455.2,286047001.6,N
1523274475.9,286047004.4,Y
1523274495.7,286047000.3,P
1523274515.6,286047002.6,P
1523274535.4,286047002.8,N
1523274555.2,286046999.8,N
1523274575.1,286047002.2,N
1523274576.0,286047002.2,N
1523274595.8,286047003.1,N
1523274615.7,286047000.5,N
1523274635.5,286047000.8,N
1523274655.3,286047001.1,N
1523274675.2,286047000.0,N
1523274695.0,286047000.2,N
1523274695.9,286047000.2,N
1523274715.8,286046998.6,N
1523274735.6,286046998.6,N
1523274755.4,286047000.0,N
1523274775.3,286046998.2,N
1523274795.1,286047000.8,N
1523274815.8,286046998.5,N
1523274835.7,286046999.2,N
1523274855.5,286046998.5,N
1523274875.4,286047000.3,N
1523274895.2,286046998.3,N
1523274915.0,286046999.2,N
1523274915.9,286046999.2,N
1523274935.8,286046996.6,N
1523274955.6,286046997.3,N
1523274975.4,286046999.2,N
1523274995.3,286046999.6,N
1523275015.1,286046998.8,N
1523275035.9,286046999.3,N
1523275055.7,286046998.4,N
1523275075.5,286047001.1,N
1523275095.4,286046999.3,N
1523275115.2,286046999.5,N
1523275135.0,286046997.5,N
1523275135.9,286046997.5,N
1523275155.8,286046997.0,N
1523275175.6,286046994.9,Y
1523275195.5,286046998.0,P
